SCD 1 1 22490U 93009B 25352.16339683 .00000455 00000+0 73799-4 0 9996 2 22490 24.9687 245.2067 0042029 22.4750 136.9822 14.46002807734881 TECHSAT 1B (GO-32) 1 25397U 98043D 25352.18591935 .00000070 00000+0 50597-4 0 9994 2 25397 98.9924 335.5238 0001903 48.8485 311.2857 14.24378625425569 SCD 2 1 25504U 98060A 25351.64988966 .00000392 00000+0 58703-4 0 9991 2 25504 24.9942 111.6188 0016851 5.6852 17.0271 14.45426055434039 DLR-TUBSAT 1 25757U 99029B 25351.55706930 .00000105 00000+0 37650-4 0 9996 2 25757 98.6566 336.2196 0014199 177.8976 182.2281 14.52359578406886 TERRA 1 25994U 99068A 25352.28258487 .00000407 00000+0 92200-4 0 9999 2 25994 97.9742 43.7635 0003567 83.5726 340.8829 14.60908205383192 MAROC-TUBSAT 1 27004U 01056D 25352.07699604 -.00000024 00000+0 25798-4 0 9994 2 27004 99.7913 160.6154 0019141 245.9193 227.9929 13.70253191201381 AQUA 1 27424U 02022A 25352.03089332 .00000845 00000+0 17905-3 0 9991 2 27424 98.4043 312.9961 0001287 113.4651 320.6588 14.61821302256800 IRS-P6 (RESOURCESAT-1) 1 28051U 03046A 25352.34873498 .00000135 00000+0 58864-4 0 9995 2 28051 98.2176 32.4964 0064464 163.8983 207.2022 14.36077289154575 SHIYAN-1 (SY-1) 1 28220U 04012A 25352.16277643 .00010670 00000+0 38993-3 0 9992 2 28220 97.8935 54.0219 0005298 303.7952 56.2781 15.28283711183392 AURA 1 28376U 04026A 25352.20043380 .00000848 00000+0 18287-3 0 9993 2 28376 98.3191 302.4525 0001331 93.3284 266.8068 14.60959300139788 IRS-P5 (CARTOSAT-1) 1 28649U 05017A 25352.32146958 .00001245 00000+0 13311-3 0 9990 2 28649 97.5488 18.4873 0000886 47.1352 312.9941 14.90423643116875 SINAH 1 1 28893U 05043D 25352.28675605 .00000361 00000+0 78157-4 0 9999 2 28893 98.2606 120.8589 0015567 120.7130 239.5608 14.63968480 74052 EROS B 1 29079U 06014A 25352.29616743 .00164609 00000+0 13477-2 0 9992 2 29079 97.3463 109.1416 0003143 310.9662 49.1328 15.70010863 91672 RESURS-DK 1 1 29228U 06021A 25352.25456861 .00002267 00000+0 13721-3 0 9999 2 29228 69.9337 87.5863 0006895 254.6917 105.3487 15.12191900 75213 ARIRANG-2 (KOMPSAT-2) 1 29268U 06031A 25352.31229903 .00000296 00000+0 64264-4 0 9995 2 29268 97.8256 180.5131 0013262 290.1072 120.5996 14.64498510 35002 LAPAN-TUBSAT 1 29709U 07001A 25352.23569620 .00000224 00000+0 32481-4 0 9994 2 29709 98.1255 342.5058 0013545 57.6409 302.6114 14.85678524 24288 HAIYANG-1B 1 31113U 07010A 25351.90852914 .00000100 00000+0 53782-4 0 9990 2 31113 98.3317 335.9732 0014019 23.3851 336.7967 14.30966850974701 COSMO-SKYMED 1 1 31598U 07023A 25352.27363465 .00003646 00000+0 33191-3 0 9999 2 31598 97.8835 177.7090 0001569 87.1417 272.9983 14.95808345 2737 TERRASAR-X 1 31698U 07026A 25351.59292048 .00000897 00000+0 45890-4 0 9990 2 31698 97.4455 356.9029 0001842 91.3746 268.7700 15.19149756 25658 WORLDVIEW-1 (WV-1) 1 32060U 07041A 25352.29680942 .00007422 00000+0 30222-3 0 9996 2 32060 97.3839 109.6997 0000907 117.1152 243.0178 15.24779912 15320 YAOGAN-3 1 32289U 07055A 25352.25652196 .00001908 00000+0 20419-3 0 9990 2 32289 97.8366 18.8328 0001322 73.5619 286.5744 14.89886245978919 COSMO-SKYMED 2 1 32376U 07059A 25352.30040709 .00000458 00000+0 64034-4 0 9999 2 32376 97.8803 173.5405 0001353 82.9377 277.1990 14.82149393975203 RADARSAT-2 1 32382U 07061A 25352.30306814 -.00000172 00000+0 -49725-4 0 9996 2 32382 98.5794 356.8128 0001089 84.4692 275.6615 14.29982609940102 CARTOSAT-2A 1 32783U 08021A 25352.28621520 .00000303 00000+0 47832-4 0 9990 2 32783 97.7929 41.9368 0011478 346.5588 13.5316 14.78945684952066 HUANJING 1A (HJ-1A) 1 33320U 08041A 25352.29479965 .00001068 00000+0 13598-3 0 9995 2 33320 97.6536 340.3617 0019832 16.8384 343.3484 14.83412047931585 HUANJING 1B (HJ-1B) 1 33321U 08041B 25352.25556712 .00000669 00000+0 87989-4 0 9990 2 33321 97.6396 344.0067 0038083 58.1646 302.3267 14.82834207931599 GEOEYE 1 1 33331U 08042A 25352.25777937 .00000493 00000+0 10147-3 0 9992 2 33331 98.1248 63.4692 0002780 261.2165 98.8723 14.64707865923668 THEOS 1 33396U 08049A 25352.31823120 -.00000211 00000+0 -79010-4 0 9998 2 33396 98.5866 50.2435 0001177 95.3480 264.7831 14.20096446892299 COSMO-SKYMED 3 1 33412U 08054A 25352.31872016 .00003698 00000+0 26159-3 0 9996 2 33412 97.8472 202.8042 0016653 153.5477 206.6602 15.05407166929718 YAOGAN-4 1 33446U 08061A 25352.27252764 .00001114 00000+0 14451-3 0 9991 2 33446 97.9188 282.3175 0013238 303.9504 56.0451 14.82698569918853 GOSAT (IBUKI) 1 33492U 09002A 25352.25156117 .00000664 00000+0 12554-3 0 9992 2 33492 98.0772 100.7783 0000986 99.2052 260.9264 14.67536216904926 DEIMOS-1 1 35681U 09041A 25352.27709970 .00000329 00000+0 55950-4 0 9996 2 35681 97.7142 152.6219 0002655 70.9033 289.2464 14.74960066880218 DUBAISAT-1 1 35682U 09041B 25352.29062222 .00001064 00000+0 16706-3 0 9993 2 35682 97.9795 122.8888 0009324 294.7299 65.2939 14.74619363878437 OCEANSAT-2 1 35931U 09051A 25352.26659675 -.00000136 00000+0 -67121-4 0 9991 2 35931 98.2218 352.3066 0016073 30.5811 329.6290 13.99623526854029 WORLDVIEW-2 (WV-2) 1 35946U 09055A 25352.23595554 .00000143 00000+0 62005-4 0 9995 2 35946 98.4783 63.2450 0005005 57.2437 302.9232 14.37726407849649 SMOS 1 36036U 09059A 25352.08241119 .00000324 00000+0 11714-3 0 9999 2 36036 98.4380 177.0517 0001094 82.5578 277.5734 14.39745950847392 YAOGAN-7 1 36110U 09069A 25352.24891133 .00000518 00000+0 79361-4 0 9996 2 36110 98.0296 233.9861 0023333 262.4937 97.3622 14.77740552862902 TANDEM-X 1 36605U 10030A 25351.59292143 .00000910 00000+0 46538-4 0 9994 2 36605 97.4443 356.9023 0001848 79.8054 280.3389 15.19149806859071 CARTOSAT-2B 1 36795U 10035A 25352.32662341 .00000782 00000+0 11317-3 0 9995 2 36795 97.7852 41.1759 0012899 59.9672 300.2817 14.78733618833120 YAOGAN-10 1 36834U 10038A 25352.31370477 .00002111 00000+0 25612-3 0 9998 2 36834 97.9138 12.0932 0001420 81.4672 48.3051 14.84629859830362 COSMO-SKYMED 4 1 37216U 10060A 25352.31307649 -.00000011 00000+0 51889-5 0 9994 2 37216 97.8800 173.5519 0001381 80.8030 279.3340 14.82149571817776 RESOURCESAT-2 1 37387U 11015A 25352.27552128 .00000118 00000+0 74221-4 0 9994 2 37387 98.7871 55.8024 0006177 27.8312 332.3195 14.21599458760476 HAIYANG-2A 1 37781U 11043A 25352.29224939 -.00000289 00000+0 -24025-3 0 9998 2 37781 99.3374 353.1414 0001631 76.3363 283.7970 13.78834656721752 RASAT 1 37791U 11044D 25352.28884841 .00000459 00000+0 88501-4 0 9990 2 37791 98.0649 81.4644 0021669 48.2233 28.2714 14.67917167766640 SRMSAT 1 37841U 11058D 25351.60850188 .00000399 00000+0 73051-4 0 9990 2 37841 19.9720 78.4836 0011885 7.0463 21.2980 14.11513105732132 PLEIADES 1A 1 38012U 11076F 25352.29381688 .00000336 00000+0 82104-4 0 9991 2 38012 98.1823 64.9769 0001155 72.8468 358.3939 14.58566628745620 ZIYUAN 1-02C (ZY 1-02C) 1 38038U 11079A 25352.32216764 .00000440 00000+0 15966-3 0 9995 2 38038 98.4333 58.2332 0007373 123.7897 311.7383 14.38018434733212 ARIRANG-3 (KOMPSAT-3) 1 38338U 12025B 25352.28781020 .00000442 00000+0 98410-4 0 9995 2 38338 98.3330 306.9191 0005010 319.6903 40.3925 14.61719985724916 EXACTVIEW-1 (ADS-1B) 1 38709U 12039C 25352.29094287 .00000108 00000+0 66166-4 0 9997 2 38709 98.9637 100.7974 0010392 337.8294 22.2434 14.24910205696949 SPOT 6 1 38755U 12047A 25352.29474221 .00000283 00000+0 70622-4 0 9993 2 38755 98.1571 56.9774 0001320 78.8894 281.2454 14.58537518706689 PLEIADES 1B 1 39019U 12068A 25352.31419943 .00000289 00000+0 72052-4 0 9998 2 39019 98.1793 64.8782 0001161 85.7606 274.3726 14.58557929694484 GOKTURK 2 1 39030U 12073A 25352.27829397 .00000794 00000+0 12413-3 0 9995 2 39030 97.6891 193.6591 0001180 107.3373 252.7967 14.75299771697838 LANDSAT 8 1 39084U 13008A 25352.21859839 .00000344 00000+0 86393-4 0 9991 2 39084 98.2067 60.2111 0001078 88.8251 271.3071 14.57108263671548 SARAL 1 39086U 13009A 25352.24458365 .00000104 00000+0 54073-4 0 9990 2 39086 98.5502 176.1031 0002942 98.3649 261.7869 14.32758938669697 GAOFEN-1 1 39150U 13018A 25352.32671807 .00000711 00000+0 10908-3 0 9991 2 39150 97.9327 62.8875 0018478 125.8554 234.4375 14.76544486681553 VNREDSAT 1 1 39160U 13021B 25352.29077745 .00000641 00000+0 12829-3 0 9999 2 39160 97.9372 47.3715 0001196 77.5486 282.5851 14.64931453673804 ARIRANG-5 (KOMPSAT-5) 1 39227U 13042A 25352.26338611 .00002145 00000+0 15742-3 0 9993 2 39227 97.6148 176.4876 0003431 40.8435 319.3047 15.04529498676658 SKYSAT-A 1 39418U 13066C 25352.10263061 .00003158 00000+0 18857-3 0 9995 2 39418 97.4104 42.1485 0021073 217.1945 142.7827 15.11641466661119 DUBAISAT-2 1 39419U 13066D 25352.28696646 .00003719 00000+0 24280-3 0 9994 2 39419 97.4444 342.5237 0010039 301.2147 58.8097 15.08410534659106 GPM-CORE 1 39574U 14009C 25352.19455343 .00006798 00000+0 15076-3 0 9994 2 39574 64.9723 194.4149 0009505 247.1367 112.8770 15.44547749669852 SENTINEL-1A 1 39634U 14016A 25352.27043310 .00000187 00000+0 49298-4 0 9995 2 39634 98.1800 357.4308 0001232 82.3455 277.7885 14.59201636623639 KAZEOSAT 1 1 39731U 14024A 25352.27161328 .00000135 00000+0 54021-4 0 9995 2 39731 98.3433 64.0552 0001135 98.0218 262.1100 14.42065558612488 ALOS-2 1 39766U 14029A 25352.28894182 .00001345 00000+0 18701-3 0 9998 2 39766 97.9226 87.0562 0001337 98.5093 261.6270 14.79474940624830 KAZEOSAT 2 1 40010U 14033A 25352.28448573 .00000860 00000+0 10625-3 0 9994 2 40010 97.5503 196.3122 0008070 186.9339 173.1767 14.85178715622104 HODOYOSHI-4 1 40011U 14033B 25352.32671810 .00000752 00000+0 88271-4 0 9995 2 40011 97.5409 180.9346 0023585 181.8801 178.2331 14.87498933621913 DEIMOS-2 1 40013U 14033D 25352.27691043 .00002094 00000+0 20672-3 0 9992 2 40013 97.6065 227.8938 0001233 107.6613 252.4741 14.92996045610725 HODOYOSHI-3 1 40015U 14033F 25352.28329709 .00001340 00000+0 16254-3 0 9996 2 40015 97.6203 157.8774 0032115 229.0096 130.8341 14.84825443620773 SPOT 7 1 40053U 14034A 25352.29037622 .00000468 00000+0 10524-3 0 9994 2 40053 98.0906 54.2382 0001540 84.5149 275.6228 14.60741012610725 SKYSAT-B 1 40072U 14037D 25352.13604186 .00001390 00000+0 16057-3 0 9998 2 40072 98.3618 296.1271 0006479 134.7787 225.3956 14.87346234619045 WORLDVIEW-3 (WV-3) 1 40115U 14048A 25352.23066906 .00000882 00000+0 11059-3 0 9993 2 40115 97.8774 64.4419 0001686 140.5848 219.5489 14.84660813615050 GAOFEN-2 1 40118U 14049A 25352.28292374 .00000950 00000+0 13072-3 0 9995 2 40118 98.0384 51.4614 0008710 97.6083 262.6119 14.80620503612463 YAOGAN-21 1 40143U 14053A 25352.26434927 .00004974 00000+0 20957-3 0 9998 2 40143 97.1753 35.3374 0009198 23.5829 336.5828 15.23734277627389 YAOGAN-22 1 40275U 14063A 25352.25977354 -.00000040 00000+0 18591-4 0 9993 2 40275 100.7425 135.7573 0005995 234.7476 125.3074 13.15522919536027 ASNARO 1 40298U 14070A 25352.27066337 .00007920 00000+0 37479-3 0 9996 2 40298 97.3653 68.0822 0005686 107.4653 252.7204 15.19608385616534 YAOGAN-24 1 40310U 14072A 25352.30261802 .00000658 00000+0 10270-3 0 9992 2 40310 98.1215 123.4251 0014955 121.2406 239.0271 14.76188483597032 CBERS 4 1 40336U 14079A 25352.30116803 .00000007 00000+0 17220-4 0 9998 2 40336 98.3308 50.1281 0001751 107.2502 252.8876 14.35519297578001 YAOGAN-26 1 40362U 14088A 25352.25958089 .00018847 00000+0 48146-3 0 9992 2 40362 97.0636 352.7378 0005453 13.5858 346.5535 15.39496041609794 SMAP 1 40376U 15003A 25352.22535531 .00000460 00000+0 98048-4 0 9994 2 40376 98.1288 356.8701 0001216 91.1406 268.9936 14.63351990581153 KOMPSAT-3A 1 40536U 15014A 25352.25364727 .00017786 00000+0 38982-3 0 9993 2 40536 97.6786 326.9053 0005277 114.5616 245.6182 15.44145175593806 SENTINEL-2A 1 40697U 15028A 25352.30559713 .00000190 00000+0 89130-4 0 9996 2 40697 98.5745 64.7591 0001052 88.3188 271.8115 14.30807747547868 GAOFEN-8 1 40701U 15030A 25352.29768890 .00011381 00000+0 29890-3 0 9991 2 40701 97.6902 170.7087 0011882 119.5750 240.6681 15.38725697583562 CARBONITE 1 (CBNT-1) 1 40718U 15032D 25352.31739271 .00001296 00000+0 16635-3 0 9992 2 40718 97.6395 173.1151 0014823 163.3354 196.8350 14.82767543562533 YAOGAN-27 1 40878U 15040A 25352.25053167 .00000381 00000+0 11155-2 0 9999 2 40878 100.1007 341.6214 0007563 273.0945 86.9304 13.16062418493862 GAOFEN-9 01 1 40894U 15047A 25352.26598424 .00000941 00000+0 12292-3 0 9991 2 40894 97.6536 30.9827 0027956 16.6099 343.6024 14.82436005553381 YAOGAN-28 1 41026U 15064A 25352.34895258 .00007263 00000+0 29809-3 0 9998 2 41026 97.2806 129.9829 0012572 108.1318 252.1290 15.24444593563103 YAOGAN-29 1 41038U 15069A 25352.28526312 .00000194 00000+0 30568-4 0 9992 2 41038 98.0216 15.4753 0000355 198.4026 161.7174 14.82887380543819 KENT RIDGE 1 1 41167U 15077B 25352.14817060 .00004046 00000+0 14126-3 0 9993 2 41167 14.9780 171.0083 0008502 207.4270 152.5603 15.21678305553460 GAOFEN-4 1 41194U 15083A 25352.28960510 -.00000310 00000+0 00000+0 0 9997 2 41194 0.1844 81.7336 0002922 94.1299 121.2536 1.00273810 36714 JASON-3 1 41240U 16002A 25352.26477815 -.00000044 00000+0 70905-4 0 9990 2 41240 66.0396 146.2083 0007192 271.1486 88.8709 12.87626819463952 SENTINEL-3A 1 41335U 16011A 25352.28137122 .00000115 00000+0 65786-4 0 9990 2 41335 98.6309 57.2163 0000912 92.7650 267.3635 14.26732845512268 ZIYUAN 3-02 (ZY 3-02) 1 41556U 16033A 25352.31122828 .00006174 00000+0 28001-3 0 9999 2 41556 97.4044 66.3866 0010900 225.3972 134.6376 15.21134624530485 CARTOSAT-2C 1 41599U 16040A 25352.32936690 .00002714 00000+0 13217-3 0 9994 2 41599 97.4762 49.5229 0011237 45.6567 314.5586 15.19162963526258 SKYSAT-C1 1 41601U 16040C 25352.07464303 .00007722 00000+0 24691-3 0 9999 2 41601 96.9819 28.7879 0001747 357.8020 2.3215 15.32685603530090 LAPAN-A3 1 41603U 16040E 25352.31357666 .00003509 00000+0 11733-3 0 9993 2 41603 97.1423 349.6672 0009101 311.4473 48.5987 15.31597020527113 BIROS 1 41604U 16040F 25352.07437419 .00176160 13397-4 54395-3 0 9995 2 41604 97.0680 23.7286 0003712 135.4768 224.6806 15.91743034529575 GAOFEN-3 1 41727U 16049A 25352.28520166 -.00000081 00000+0 -11388-4 0 9993 2 41727 98.4035 357.7875 0001273 57.4531 302.6782 14.42214682492571 SKYSAT-C4 1 41771U 16058B 25352.05284408 .00011948 00000+0 27833-3 0 9996 2 41771 96.9368 16.9828 0001980 130.8433 229.2988 15.42399343517496 SKYSAT-C5 1 41772U 16058C 25352.09658076 .00007580 00000+0 23286-3 0 9992 2 41772 97.0755 35.6253 0003755 267.8506 92.2307 15.33970386515980 SKYSAT-C2 1 41773U 16058D 25352.08369444 .00009986 00000+0 27446-3 0 9994 2 41773 97.0354 16.3844 0003655 20.3786 339.7604 15.37390226517185 SKYSAT-C3 1 41774U 16058E 25352.08979336 .00015850 00000+0 34246-3 0 9995 2 41774 96.9292 25.5873 0001841 107.4284 252.7167 15.44584700518082 ALSAT 1B 1 41785U 16059C 25352.31145286 .00000245 00000+0 46479-4 0 9997 2 41785 97.7812 3.8614 0010771 87.5119 272.7322 14.72080955493967 PATHFINDER 1 1 41787U 16059E 25352.24643681 .00000656 00000+0 12363-3 0 9993 2 41787 97.8136 354.7645 0029918 64.4700 295.9594 14.67330848493178 SCATSAT 1 1 41790U 16059H 25352.13696748 .00001219 00000+0 16833-3 0 9999 2 41790 98.1458 48.8745 0056403 110.9556 249.7703 14.78954319 74823 GOKTURK 1A 1 41875U 16073A 25352.24877628 .00000483 00000+0 10390-3 0 9993 2 41875 98.1433 244.5404 0001249 79.5185 280.6158 14.62786205482374 RESOURCESAT-2A 1 41877U 16074A 25352.25785491 .00000244 00000+0 13131-3 0 9994 2 41877 98.7755 62.0818 0001346 228.1311 131.9752 14.21602085468596 CARTOSAT-2D 1 41948U 17008A 25352.29745605 .00004821 00000+0 23148-3 0 9992 2 41948 97.4389 49.7108 0005089 146.2571 213.8989 15.19315271490115 SENTINEL-2B 1 42063U 17013A 25352.29839488 .00000184 00000+0 86933-4 0 9990 2 42063 98.5715 64.6666 0001148 93.6288 266.5027 14.30818592458776 CARTOSAT-2E 1 42767U 17036C 25352.31398309 .00004533 00000+0 21830-3 0 9997 2 42767 97.4552 49.8284 0002408 211.9764 148.1325 15.19252944470680 FORMOSAT-5 1 42920U 17049A 25352.22102479 .00000185 00000+0 58028-4 0 9992 2 42920 98.2448 66.4306 0009860 282.9943 77.0150 14.50763886440432 SENTINEL-5P 1 42969U 17064A 25352.26474058 .00000043 00000+0 41505-4 0 9996 2 42969 98.7791 290.8000 0001004 90.1116 270.0175 14.19518903423894 SKYSAT-C11 1 42987U 17068A 25352.17560990 .00020081 00000+0 38997-3 0 9995 2 42987 97.4139 129.8026 0001165 100.9043 259.2338 15.47673714455150 SKYSAT-C10 1 42988U 17068B 25352.21575360 .00009638 00000+0 31254-3 0 9992 2 42988 97.4258 123.0819 0005430 88.3160 271.8704 15.32178093454630 SKYSAT-C9 1 42989U 17068C 25352.29424249 .00012101 00000+0 34469-3 0 9990 2 42989 97.4190 122.5919 0010570 69.9784 290.2597 15.36190512454931 SKYSAT-C8 1 42990U 17068D 25352.18033133 .00010458 00000+0 33004-3 0 9995 2 42990 97.4280 122.2043 0001197 320.7312 39.3843 15.33039437454546 SKYSAT-C7 1 42991U 17068E 25351.88219441 .00008966 00000+0 28856-3 0 9990 2 42991 97.4288 122.9414 0007324 41.2137 318.9657 15.32433807454561 SKYSAT-C6 1 42992U 17068F 25352.19045637 .00009739 00000+0 32153-3 0 9994 2 42992 97.4321 123.6852 0005069 67.7962 292.3817 15.31600046454593 CARTOSAT-2F 1 43111U 18004A 25352.61004503 .00003644 00000+0 17648-3 0 9994 2 43111 97.4312 50.1533 0001286 111.9235 248.2137 15.19179725439914 GAOFEN-1 02 1 43259U 18031A 25352.28212443 .00001026 00000+0 15506-3 0 9997 2 43259 98.0806 50.0738 0002103 195.9186 164.1957 14.76428112416004 GAOFEN-1 03 1 43260U 18031B 25352.32813057 .00000755 00000+0 11597-3 0 9996 2 43260 98.0792 49.9957 0001752 293.5505 66.5520 14.76448348416003 GAOFEN-1 04 1 43262U 18031D 25352.30373017 .00000514 00000+0 81258-4 0 9998 2 43262 98.0807 50.1418 0000851 60.4729 299.6565 14.76460753415995 SENTINEL-3B 1 43437U 18039A 25352.18445148 .00000120 00000+0 67707-4 0 9997 2 43437 98.6262 57.2917 0001615 96.1081 264.0284 14.26736083398315 GAOFEN-5 01 1 43461U 18043A 25351.92404893 .00000371 00000+0 86663-4 0 9992 2 43461 98.4331 314.9819 0000646 313.2433 46.8713 14.60415423405231 GAOFEN-6 1 43484U 18048A 25352.27488134 .00000577 00000+0 89613-4 0 9997 2 43484 97.8031 56.3562 0012959 47.2559 312.9739 14.76575772406698 GAOFEN-11 01 1 43585U 18063A 25352.30833281 .00016019 00000+0 29352-3 0 9998 2 43585 97.1562 55.1969 0004059 284.6905 75.3897 15.49379628412284 ICESAT-2 1 43613U 18070A 25352.23669984 .00011177 00000+0 40563-3 0 9994 2 43613 92.0052 242.2206 0002796 129.3374 230.8124 15.28289744404826 HYSIS 1 43719U 18096A 25352.32808907 .00000676 00000+0 99352-4 0 9992 2 43719 98.0097 55.2788 0001130 50.4349 309.6962 14.78659109380695 KAZSTSAT 1 43783U 18099AB 25352.07375740 .00000468 00000+0 42838-4 0 9998 2 43783 97.4539 27.0295 0005921 306.4934 53.5744 14.99362762384164 SAUDISAT 5A 1 43831U 18102A 25352.30013352 .00005214 00000+0 20692-3 0 9998 2 43831 97.3351 52.3843 0011515 59.1257 301.1113 15.25724670388071 SAUDISAT 5B 1 43833U 18102C 25352.28934154 .00005108 00000+0 20061-3 0 9991 2 43833 97.3447 55.1222 0012259 61.3175 298.9294 15.26074824388186 GAOFEN-10R 1 44622U 19066A 25352.32664302 .00001286 00000+0 16563-3 0 9993 2 44622 98.0284 299.8547 0007505 25.8168 334.3418 14.82810995335578 CARTOSAT-3 1 44804U 19081A 25352.29489676 .00004089 00000+0 19710-3 0 9998 2 44804 97.4583 51.8083 0014005 65.8569 294.4128 15.19199880336005 GAOFEN-12 01 1 44819U 19082A 25352.28460492 .00000415 00000+0 60591-4 0 9992 2 44819 97.8124 358.4201 0001663 204.3782 155.7352 14.80663851327321 CSG-1 1 44873U 19092A 25352.32572222 .00000464 00000+0 64828-4 0 9994 2 44873 97.8803 173.5657 0001494 86.4329 273.7055 14.82147891324684 NEMO-HD 1 46277U 20061F 25352.28101363 .00008778 00000+0 21887-3 0 9994 2 46277 97.2210 51.3090 0001525 51.9186 308.2198 15.40440857294093 SENTINEL-6A 1 46984U 20086A 25352.18355437 -.00000054 00000+0 29220-4 0 9998 2 46984 66.0391 151.0009 0007711 269.2836 90.7296 12.80930811237149 GAOFEN-12 02 1 48079U 21026A 25352.28241226 .00000421 00000+0 61592-4 0 9996 2 48079 97.9853 346.2621 0003602 90.0770 270.0855 14.80681856254992 PLEIADES NEO 3 1 48268U 21034A 25352.46873346 .00000957 00000+0 12826-3 0 9998 2 48268 97.8948 64.8276 0001334 96.0456 264.0909 14.81671671250895 PLEIADES NEO 4 1 49070U 21073E 25352.29989131 .00000196 00000+0 31474-4 0 9990 2 49070 97.8950 64.6572 0001230 92.7216 267.4137 14.81673871234581 LANDSAT 9 1 49260U 21088A 25352.18435815 .00000354 00000+0 88610-4 0 9990 2 49260 98.2089 60.2164 0001111 90.4341 269.6985 14.57103516224649 CSG-2 1 51444U 22008A 25352.29196581 .00000578 00000+0 79138-4 0 9999 2 51444 97.8800 173.5308 0001483 84.0063 276.1319 14.82150537209798 GAOFEN-12 03 1 52912U 22069A 25352.24953880 .00000969 00000+0 13598-3 0 9996 2 52912 97.8487 239.4709 0002063 55.1009 305.0396 14.79621839187854 SWOT 1 54754U 22173A 25352.28045335 .00000064 00000+0 45198-4 0 9997 2 54754 77.6108 279.5104 0000365 98.1983 261.9210 14.00167687153837 GAOFEN-12 04 1 57654U 23123A 25352.28495131 .00001071 00000+0 14939-3 0 9995 2 57654 97.9126 267.9580 0001249 75.6312 284.5038 14.79715948125878 PARS 1 1 59065U 24039Q 25352.25269448 .00010596 00000+0 25756-3 0 9998 2 59065 97.4633 323.3027 0012209 55.7231 304.5170 15.41098358100731 RESURS-P 4 1 59371U 24061A 25352.32433865 .00003459 00000+0 11398-3 0 9994 2 59371 97.2550 298.5397 0001120 58.1213 302.0138 15.32129410 96068 LEGION 1 1 59625U 24081A 25352.27447419 .00004195 00000+0 21859-3 0 9993 2 59625 97.5214 66.8660 0003683 292.6917 67.3926 15.16534805 90117 LEGION 2 1 59626U 24081B 25352.24147691 .00004386 00000+0 22823-3 0 9994 2 59626 97.5217 66.9208 0005623 269.7372 90.3217 15.16546335 90116 ALOS-4 (DAICHI-4) 1 60182U 24123A 25352.24063941 .00001796 00000+0 24738-3 0 9994 2 60182 97.9224 87.0094 0001383 102.2976 257.8390 14.79469770 79129 LEGION 3 1 60452U 24146A 25352.22603783 .00004162 00000+0 22715-3 0 9994 2 60452 45.0024 280.7203 0015493 228.3290 131.6262 15.15819718 74563 LEGION 4 1 60453U 24146B 25352.22642588 .00004011 00000+0 21939-3 0 9991 2 60453 45.0397 12.4861 0008967 339.8943 20.1582 15.15881660 73413 SENTINEL-2C 1 60989U 24157A 25352.19361968 .00000120 00000+0 62374-4 0 9999 2 60989 98.5678 64.5976 0001223 96.5555 263.5768 14.30819708 67109 IONOSFERA-M 1 1 61735U 24199A 25352.31326270 .00000045 00000+0 39840-4 0 9994 2 61735 98.7401 222.1187 0000691 13.0907 347.0289 14.22715223101983 IONOSFERA-M 2 1 61736U 24199B 25352.27757352 .00000058 00000+0 45769-4 0 9990 2 61736 98.7406 221.9956 0001765 103.5459 256.5916 14.22717436105107 BIOMASS 1 63772U 25090A 25352.27676217 .00000880 00000+0 16363-3 0 9993 2 63772 98.0700 177.2057 0001150 79.3908 280.7426 14.67532145 34153 GOSAT-GW (IBUKI GW) 1 64694U 25141A 25352.30517244 .00000681 00000+0 12841-3 0 9998 2 64694 98.0433 287.7172 0001443 83.5867 276.5503 14.67563725 25316 IONOSFERA-M 3 1 64876U 25155A 25352.27389868 .00000048 00000+0 41317-4 0 9998 2 64876 98.5790 313.9835 0002085 51.0295 309.1069 14.21442361 20705 IONOSFERA-M 4 1 64877U 25155B 25352.30896051 .00000054 00000+0 44212-4 0 9994 2 64877 98.5788 313.9371 0001470 58.1675 301.9646 14.21443582 20702 MICROCARB 1 64899U 25156A 25352.22443825 .00000584 00000+0 10063-3 0 9991 2 64899 98.0020 67.4818 0017432 128.1750 232.1031 14.72066066 21342 CO3D 3 1 64900U 25156B 25352.30661913 .00003635 00000+0 17093-3 0 9993 2 64900 97.4346 68.5943 0001382 84.5738 275.5654 15.20210832 22055 CO3D 4 1 64901U 25156C 25352.24096097 .00005616 00000+0 26224-3 0 9999 2 64901 97.4345 68.5296 0001205 177.6930 182.4311 15.20219527 22043 CO3D 2 1 64902U 25156D 25351.68238519 -.00000734 13613-5 -18482-5 0 9991 2 64902 96.5359 68.5306 0373950 43.1546 319.8361 15.19614060 21959 CO3D 1 1 64903U 25156E 25351.48369067 .00003599 00000+0 79753-4 0 9990 2 64903 97.9769 67.7300 0199416 106.5315 255.7931 15.26220326 21920 SENTINEL-6B 1 66514U 25264A 25346.25094246 -.00000018 00000+0 18573-3 0 9999 2 66514 66.0385 163.4531 0007848 270.1376 89.8740 12.81479578 3223